Regional Weather Roundup
Issued by NWS Little Rock, AR

Home | Current Version | Previous Version | Graphics & Text | Print | Product List | Glossary On
Versions: 1 2 3 4 5 6 7 8 9 10 11 12 13 14 15 16 17 18 19 20 21 22 23 24 25 26 27 28 29 30 31 32 33 34 35 36 37 38 39 40 41 42 43 44 45 46 47 48 49 50
000
ASUS44 KLZK 222005
RWRLZK

WEATHER ROUNDUP FOR ARKANSAS
NATIONAL WEATHER SERVICE LITTLE ROCK AR
300 PM CDT FRI AUG 22 2014

NOTE: "FAIR" INDICATES FEW OR NO CLOUDS BELOW 12,000 FEET WITH NO
SIGNIFICANT WEATHER AND/OR OBSTRUCTIONS TO VISIBILITY.

ARZ001-003-010-029-222100-
NORTHWEST ARKANSAS

CITY           SKY/WX    TMP DP  RH WIND       PRES   REMARKS
FAYETTEVILLE   SUNNY     92  73  53 S14G20    30.02F HX 100
FORT SMITH     SUNNY     95  74  50 S12       29.99F HX 105
HARRISON       SUNNY     93  72  50 S7        30.03F HX 101
BENTONVILLE    SUNNY     93  72  49 SW10      30.04F HX 100
ROGERS         SUNNY     95  68  41 SW12      30.03F HX  99
SILOAM SPGS    SUNNY     91  72  52 S12       30.03F HX  98
HIGHFILL       SUNNY     94  72  48 SW12      30.02F HX 102
SPRINGDALE     SUNNY     93  72  49 SW12      30.05F HX 100
$$

ARZ004-005-016-222100-
NORTH CENTRAL ARKANSAS

CITY           SKY/WX    TMP DP  RH WIND       PRES   REMARKS
BATESVILLE     MOSUNNY   97  70  41 W12       30.00F HX 103
FLIPPIN          N/A     95  70  43 SW10      29.99F HX 101
MTN HOME       SUNNY     96  69  41 S7        29.99F HX 102
$$

ARZ040-041-222100-
WEST CENTRAL ARKANSAS

CITY           SKY/WX    TMP DP  RH WIND       PRES   REMARKS
MENA           SUNNY     93  77  59 CALM      30.06F HX 107
MOUNT IDA      MOSUNNY   90  76  63 VRB3      30.03F HX 101
$$

ARZ009-017-025-026-028-222100-
NORTHEAST ARKANSAS

CITY           SKY/WX    TMP DP  RH WIND       PRES   REMARKS
CORNING        LGT RAIN  93  77  59 S12       29.99F HX 107
JONESBORO      SUNNY     95  75  52 SW13      29.99F HX 107
NEWPORT        SUNNY     97  76  50 S7G16     30.00F HX 110
WALNUT RIDGE   MOSUNNY   93  73  52 S13       29.98F HX 102
BLYTHEVILLE    MOSUNNY   92  78  63 SW7       30.00F HX 107
$$

ARZ022-023-033-042-044-222100-
CENTRAL ARKANSAS

CITY           SKY/WX    TMP DP  RH WIND       PRES   REMARKS
LITTLE ROCK    MOSUNNY   94  72  48 SW9       30.01F HX 102
N LITTLE ROCK  MOSUNNY   94  76  56 SE5       30.01F HX 106
JACKSONVILLE   SUNNY     94  76  54 S6        30.01F HX 107
SEARCY           N/A     96  75  50 CALM        N/A  HX 107
HOT SPRINGS    MOSUNNY   91  75  59 SW6       30.04F HX 101
RUSSELLVILLE   SUNNY     93  73  52 SW6       30.01F HX 102
CLINTON        FAIR      99  73  44 W5        30.00F HAZE    HX 109
$$

ARZ036-222100-
EAST ARKANSAS

CITY           SKY/WX    TMP DP  RH WIND       PRES   REMARKS
WEST MEMPHIS   SUNNY     93  77  59 S7        30.01F HX 107
$$

ARZ050-053-066-070-073-222100-
SOUTHWEST ARKANSAS

CITY           SKY/WX    TMP DP  RH WIND       PRES   REMARKS
ARKADELPHIA    FAIR      93  79  63 W6        30.03F HX 110
CAMDEN         SUNNY     93  72  49 SW9       30.03F HX 100
TEXARKANA      SUNNY     94  71  47 SW9       30.04F HX 101
EL DORADO      SUNNY     91  73  55 VRB5      30.06F HX  99
DE QUEEN       SUNNY     91  75  59 S10       30.01F HX 101
$$

ARZ056-057-069-222100-
SOUTHEAST ARKANSAS

CITY           SKY/WX    TMP DP  RH WIND       PRES   REMARKS
PINE BLUFF     SUNNY     92  73  53 SW10      30.03F HX 100
STUTTGART      SUNNY     93  75  55 SW12      30.03F HX 104
MONTICELLO     SUNNY     93  70  46 CALM      30.04F HX  99

$$





USA.gov is the U.S. government's official web portal to all federal, state and local government web resources and services.